LAN286 SCEL-SCIE

Flight info

Callsign LAN286
Flight time N/A
Altitude 300
Route GELU5B GELUS UQ809 ARUNI ARUN6C
Aircraft A320/M-SDE3FGHIRWY/LB1

Departure

Time 2026-05-08 03:45
Airport Comodoro Arturo Merino Benítez International Airport (SCEL)

Arrival

Time N/A
Airport Carriel Sur International Airport (SCIE)
Time Latitude Longitude Altitude Speed Heading
2026-05-08 03:03 -33.39609 -70.79372 1597 ft 0 kts 177°
2026-05-08 03:25 -33.39593 -70.79372 1561 ft 2 kts 177°
2026-05-08 03:25 -33.39576 -70.79373 1561 ft 2 kts 177°
2026-05-08 03:26 -33.39559 -70.79374 1561 ft 2 kts 177°
2026-05-08 03:26 -33.39542 -70.79375 1561 ft 2 kts 177°
2026-05-08 03:26 -33.39524 -70.79376 1561 ft 3 kts 169°
2026-05-08 03:26 -33.39508 -70.79383 1561 ft 3 kts 133°
2026-05-08 03:27 -33.39501 -70.79392 1561 ft 0 kts 118°
2026-05-08 03:34 -33.39510 -70.79345 1561 ft 12 kts 93°
2026-05-08 03:35 -33.39504 -70.79200 1562 ft 20 kts 86°
2026-05-08 03:35 -33.39500 -70.79029 1562 ft 21 kts 89°
2026-05-08 03:35 -33.39469 -70.78877 1562 ft 16 kts 21°
2026-05-08 03:35 -33.39378 -70.78824 1562 ft 14 kts 32°
2026-05-08 03:36 -33.39295 -70.78796 1562 ft 12 kts
2026-05-08 03:36 -33.39222 -70.78798 1562 ft 10 kts 357°
2026-05-08 03:36 -33.39160 -70.78802 1562 ft 8 kts 356°
2026-05-08 03:36 -33.39107 -70.78806 1562 ft 7 kts 356°
2026-05-08 03:37 -33.39063 -70.78809 1561 ft 6 kts 356°
2026-05-08 03:37 -33.39027 -70.78811 1561 ft 5 kts 356°
2026-05-08 03:37 -33.38998 -70.78813 1561 ft 4 kts 356°
2026-05-08 03:37 -33.38967 -70.78815 1561 ft 10 kts 356°
2026-05-08 03:38 -33.38830 -70.78825 1561 ft 28 kts 356°
2026-05-08 03:38 -33.38624 -70.78839 1560 ft 30 kts 358°
2026-05-08 03:38 -33.38412 -70.78847 1560 ft 31 kts 358°
2026-05-08 03:38 -33.38201 -70.78856 1560 ft 31 kts 358°
2026-05-08 03:39 -33.37981 -70.78868 1560 ft 32 kts 357°
2026-05-08 03:39 -33.37759 -70.78881 1559 ft 32 kts 356°
2026-05-08 03:39 -33.37578 -70.78861 1559 ft 16 kts 40°
2026-05-08 03:39 -33.37562 -70.78813 1559 ft 0 kts 103°
2026-05-08 03:43 -33.37561 -70.78783 1559 ft 10 kts 89°
2026-05-08 03:43 -33.37589 -70.78691 1559 ft 13 kts 146°
2026-05-08 03:43 -33.37630 -70.78677 1559 ft 4 kts 173°
2026-05-08 03:43 -33.37638 -70.78676 1559 ft 0 kts 175°
2026-05-08 03:44 -33.37867 -70.78656 1559 ft 69 kts 176°
2026-05-08 03:44 -33.38559 -70.78624 1562 ft 127 kts 178°
2026-05-08 03:44 -33.39590 -70.78577 1673 ft 162 kts 179°
2026-05-08 03:45 -33.40743 -70.78524 2262 ft 166 kts 177°
2026-05-08 03:45 -33.41888 -70.78453 3018 ft 164 kts 176°
2026-05-08 03:45 -33.43047 -70.78380 3558 ft 173 kts 176°
2026-05-08 03:45 -33.44311 -70.78299 3792 ft 196 kts 176°
2026-05-08 03:46 -33.45769 -70.78227 4091 ft 220 kts 182°
2026-05-08 03:46 -33.47245 -70.78871 4417 ft 244 kts 220°
2026-05-08 03:46 -33.48289 -70.80574 4888 ft 264 kts 243°
2026-05-08 03:46 -33.48996 -70.82629 5666 ft 269 kts 250°
2026-05-08 03:47 -33.49610 -70.84759 6569 ft 270 kts 250°
2026-05-08 03:47 -33.50238 -70.86888 7417 ft 272 kts 249°
2026-05-08 03:47 -33.50924 -70.89030 8214 ft 275 kts 247°
2026-05-08 03:47 -33.51654 -70.91148 8824 ft 281 kts 246°
2026-05-08 03:48 -33.52432 -70.93294 8977 ft 281 kts 245°
2026-05-08 03:48 -33.53234 -70.95428 9001 ft 280 kts 243°
2026-05-08 03:48 -33.54339 -70.97326 9007 ft 278 kts 224°
2026-05-08 03:48 -33.55937 -70.98642 9449 ft 282 kts 206°
2026-05-08 03:49 -33.57699 -70.99679 10300 ft 285 kts 206°
2026-05-08 03:49 -33.59536 -71.00789 10595 ft 306 kts 207°
2026-05-08 03:49 -33.61459 -71.01967 11201 ft 312 kts 207°
2026-05-08 03:49 -33.63394 -71.03157 12002 ft 312 kts 207°
2026-05-08 03:50 -33.65324 -71.04340 12893 ft 310 kts 207°
2026-05-08 03:50 -33.67240 -71.05513 13794 ft 308 kts 207°
2026-05-08 03:50 -33.69126 -71.06666 14564 ft 307 kts 207°
2026-05-08 03:50 -33.71026 -71.07826 15292 ft 306 kts 207°
2026-05-08 03:51 -33.72926 -71.08984 15982 ft 306 kts 207°
2026-05-08 03:51 -33.74823 -71.10138 16670 ft 305 kts 207°
2026-05-08 03:51 -33.76726 -71.11293 17346 ft 307 kts 207°
2026-05-08 03:51 -33.78639 -71.12455 18027 ft 309 kts 207°
2026-05-08 03:52 -33.80555 -71.13622 18635 ft 310 kts 207°
2026-05-08 03:52 -33.82482 -71.14796 19182 ft 311 kts 208°
2026-05-08 03:52 -33.84423 -71.15980 19747 ft 314 kts 208°
2026-05-08 03:52 -33.86375 -71.17169 20297 ft 315 kts 207°
2026-05-08 03:53 -33.88339 -71.18367 20837 ft 317 kts 208°
2026-05-08 03:53 -33.90309 -71.19570 21345 ft 319 kts 208°
2026-05-08 03:53 -33.92295 -71.20782 21865 ft 321 kts 208°
2026-05-08 03:53 -33.94293 -71.22005 22386 ft 322 kts 208°
2026-05-08 03:54 -33.96295 -71.23234 22889 ft 324 kts 208°
2026-05-08 03:54 -33.98315 -71.24475 23328 ft 327 kts 209°
2026-05-08 03:54 -34.00347 -71.25722 23841 ft 328 kts 208°
2026-05-08 03:54 -34.02390 -71.26972 24259 ft 329 kts 208°
2026-05-08 03:55 -34.04433 -71.28220 24715 ft 329 kts 208°
2026-05-08 03:55 -34.06477 -71.29470 25163 ft 329 kts 208°
2026-05-08 03:55 -34.08493 -71.30705 25593 ft 329 kts 208°
2026-05-08 03:55 -34.10534 -71.31959 26017 ft 329 kts 208°
2026-05-08 03:56 -34.12575 -71.33218 26443 ft 330 kts 207°
2026-05-08 03:56 -34.14621 -71.34477 26875 ft 330 kts 207°
2026-05-08 03:56 -34.16662 -71.35734 27311 ft 330 kts 207°
2026-05-08 03:56 -34.18708 -71.36996 27719 ft 330 kts 207°
2026-05-08 03:57 -34.20751 -71.38258 28124 ft 330 kts 207°
2026-05-08 03:57 -34.22802 -71.39521 28536 ft 331 kts 207°
2026-05-08 03:57 -34.24845 -71.40779 28949 ft 331 kts 206°
2026-05-08 03:57 -34.26896 -71.42044 29348 ft 331 kts 206°
2026-05-08 03:58 -34.28956 -71.43318 29727 ft 332 kts 206°
2026-05-08 03:58 -34.30995 -71.44577 30108 ft 332 kts 206°
2026-05-08 03:58 -34.33058 -71.45849 30271 ft 329 kts 206°
2026-05-08 03:58 -34.35049 -71.47079 30287 ft 313 kts 206°
2026-05-08 03:59 -34.36939 -71.48246 30289 ft 299 kts 206°
2026-05-08 03:59 -34.38775 -71.49381 30292 ft 294 kts 206°
2026-05-08 03:59 -34.40595 -71.50508 30297 ft 293 kts 206°
2026-05-08 03:59 -34.41795 -71.51252 30294 ft 292 kts 206°
2026-05-08 04:00 -34.43600 -71.52374 30295 ft 292 kts 206°
2026-05-08 04:00 -34.45406 -71.53498 30296 ft 291 kts 206°
2026-05-08 04:00 -34.47791 -71.54980 30297 ft 291 kts 206°
2026-05-08 04:00 -34.49596 -71.56096 30293 ft 291 kts 206°
2026-05-08 04:01 -34.51396 -71.57208 30301 ft 291 kts 206°
2026-05-08 04:01 -34.52592 -71.57947 30298 ft 291 kts 206°
2026-05-08 04:01 -34.54394 -71.59064 30295 ft 291 kts 206°
2026-05-08 04:01 -34.56202 -71.60192 30300 ft 291 kts 206°
2026-05-08 04:02 -34.58009 -71.61319 30299 ft 290 kts 206°
2026-05-08 04:02 -34.59796 -71.62433 30303 ft 291 kts 206°
2026-05-08 04:02 -34.61601 -71.63555 30314 ft 291 kts 206°
2026-05-08 04:02 -34.63391 -71.64666 30306 ft 291 kts 206°
2026-05-08 04:03 -34.65187 -71.65785 30305 ft 292 kts 206°
2026-05-08 04:03 -34.68796 -71.68039 30317 ft 292 kts 206°
2026-05-08 04:03 -34.70618 -71.69176 30312 ft 292 kts 206°
2026-05-08 04:04 -34.72413 -71.70296 30316 ft 292 kts 206°
2026-05-08 04:04 -34.74229 -71.71431 30309 ft 292 kts 206°
2026-05-08 04:04 -34.76038 -71.72565 30327 ft 292 kts 207°
2026-05-08 04:04 -34.77836 -71.73689 30324 ft 292 kts 207°
2026-05-08 04:05 -34.79637 -71.74815 30317 ft 292 kts 207°
2026-05-08 04:05 -34.81458 -71.75954 30314 ft 292 kts 207°
2026-05-08 04:05 -34.83250 -71.77075 30325 ft 292 kts 207°
2026-05-08 04:05 -34.85068 -71.78213 30325 ft 293 kts 207°
2026-05-08 04:06 -34.86886 -71.79352 30319 ft 293 kts 207°
2026-05-08 04:06 -34.88684 -71.80481 30314 ft 293 kts 207°
2026-05-08 04:06 -34.90506 -71.81626 30326 ft 293 kts 207°
2026-05-08 04:06 -34.92326 -71.82768 30325 ft 294 kts 207°
2026-05-08 04:07 -34.94129 -71.83899 30318 ft 293 kts 207°
2026-05-08 04:07 -34.95956 -71.85046 30314 ft 294 kts 207°
2026-05-08 04:07 -34.97766 -71.86183 30322 ft 294 kts 207°
2026-05-08 04:07 -34.99585 -71.87325 30315 ft 295 kts 207°
2026-05-08 04:08 -35.01417 -71.88477 30319 ft 295 kts 207°
2026-05-08 04:08 -35.03228 -71.89620 30325 ft 295 kts 207°
2026-05-08 04:08 -35.05069 -71.90783 30340 ft 295 kts 207°
2026-05-08 04:08 -35.06883 -71.91925 30332 ft 295 kts 207°
2026-05-08 04:09 -35.08704 -71.93071 30328 ft 295 kts 207°
2026-05-08 04:09 -35.10543 -71.94228 30331 ft 296 kts 207°
2026-05-08 04:09 -35.12360 -71.95374 30338 ft 296 kts 207°
2026-05-08 04:09 -35.14200 -71.96539 30335 ft 296 kts 207°
2026-05-08 04:10 -35.16015 -71.97691 30333 ft 296 kts 207°
2026-05-08 04:10 -35.17852 -71.98855 30336 ft 297 kts 207°
2026-05-08 04:10 -35.19698 -72.00023 30343 ft 297 kts 207°
2026-05-08 04:10 -35.21520 -72.01176 30343 ft 297 kts 207°
2026-05-08 04:11 -35.23345 -72.02328 30337 ft 297 kts 207°
2026-05-08 04:11 -35.25189 -72.03494 30338 ft 297 kts 207°
2026-05-08 04:11 -35.27021 -72.04655 30348 ft 297 kts 207°
2026-05-08 04:11 -35.28855 -72.05819 30342 ft 298 kts 207°
2026-05-08 04:12 -35.30705 -72.06995 30348 ft 298 kts 207°
2026-05-08 04:12 -35.32538 -72.08161 30344 ft 298 kts 207°
2026-05-08 04:12 -35.34371 -72.09325 30347 ft 298 kts 207°
2026-05-08 04:12 -35.36202 -72.10488 30352 ft 298 kts 207°
2026-05-08 04:13 -35.38048 -72.11663 30347 ft 298 kts 207°
2026-05-08 04:13 -35.39882 -72.12830 30354 ft 298 kts 207°
2026-05-08 04:13 -35.41743 -72.14016 30351 ft 298 kts 207°
2026-05-08 04:13 -35.43572 -72.15178 30346 ft 299 kts 207°
2026-05-08 04:14 -35.45409 -72.16349 30341 ft 298 kts 207°
2026-05-08 04:14 -35.47267 -72.17532 30339 ft 299 kts 207°
2026-05-08 04:14 -35.49095 -72.18695 30350 ft 299 kts 207°
2026-05-08 04:14 -35.50967 -72.19887 30337 ft 307 kts 207°
2026-05-08 04:15 -35.52904 -72.21125 30332 ft 318 kts 207°
2026-05-08 04:15 -35.54896 -72.22400 30333 ft 328 kts 207°
2026-05-08 04:15 -35.58965 -72.25010 30040 ft 328 kts 207°
2026-05-08 04:16 -35.60997 -72.26314 29301 ft 328 kts 207°
2026-05-08 04:16 -35.63027 -72.27615 28603 ft 329 kts 207°
2026-05-08 04:16 -35.65054 -72.28913 27959 ft 328 kts 207°
2026-05-08 04:16 -35.67073 -72.30206 27345 ft 327 kts 207°
2026-05-08 04:17 -35.69063 -72.31483 26770 ft 326 kts 207°
2026-05-08 04:17 -35.71057 -72.32765 26366 ft 320 kts 208°
2026-05-08 04:17 -35.73011 -72.34022 26004 ft 314 kts 208°
2026-05-08 04:17 -35.74926 -72.35254 25638 ft 308 kts 208°
2026-05-08 04:18 -35.76809 -72.36465 25281 ft 303 kts 208°
2026-05-08 04:18 -35.78664 -72.37657 24922 ft 298 kts 208°
2026-05-08 04:18 -35.80489 -72.38830 24567 ft 294 kts 208°
2026-05-08 04:18 -35.82294 -72.39993 24208 ft 291 kts 208°
2026-05-08 04:19 -35.84081 -72.41144 23831 ft 288 kts 209°
2026-05-08 04:19 -35.85848 -72.42284 23434 ft 285 kts 208°
2026-05-08 04:19 -35.87593 -72.43410 22999 ft 283 kts 208°
2026-05-08 04:19 -35.89305 -72.44540 22535 ft 282 kts 210°
2026-05-08 04:20 -35.90996 -72.45761 22102 ft 281 kts 211°
2026-05-08 04:20 -35.92655 -72.47013 21665 ft 280 kts 212°
2026-05-08 04:20 -35.94307 -72.48275 21237 ft 279 kts 212°
2026-05-08 04:20 -35.95963 -72.49538 20802 ft 279 kts 212°
2026-05-08 04:21 -35.97621 -72.50797 20375 ft 279 kts 211°
2026-05-08 04:21 -35.99256 -72.52033 19956 ft 278 kts 211°
2026-05-08 04:21 -36.00920 -72.53287 19531 ft 278 kts 211°
2026-05-08 04:21 -36.02585 -72.54539 19108 ft 279 kts 211°
2026-05-08 04:22 -36.04235 -72.55777 18688 ft 279 kts 211°
2026-05-08 04:22 -36.05899 -72.57026 18236 ft 279 kts 211°
2026-05-08 04:22 -36.07552 -72.58268 17827 ft 277 kts 211°
2026-05-08 04:22 -36.09195 -72.59505 17408 ft 276 kts 211°
2026-05-08 04:23 -36.10826 -72.60735 17014 ft 276 kts 211°
2026-05-08 04:23 -36.12467 -72.61970 16618 ft 275 kts 211°
2026-05-08 04:23 -36.14089 -72.63190 16228 ft 275 kts 211°
2026-05-08 04:23 -36.15726 -72.64421 15840 ft 275 kts 211°
2026-05-08 04:24 -36.17361 -72.65651 15444 ft 274 kts 211°
2026-05-08 04:24 -36.18987 -72.66876 15063 ft 274 kts 211°
2026-05-08 04:24 -36.20610 -72.68098 14807 ft 270 kts 211°
2026-05-08 04:24 -36.22196 -72.69295 14580 ft 265 kts 211°
2026-05-08 04:25 -36.23770 -72.70483 14246 ft 264 kts 211°
2026-05-08 04:25 -36.25319 -72.71655 13902 ft 263 kts 211°
2026-05-08 04:25 -36.26883 -72.72836 13522 ft 263 kts 211°
2026-05-08 04:25 -36.28446 -72.74017 13146 ft 262 kts 211°
2026-05-08 04:26 -36.30010 -72.75199 12800 ft 261 kts 211°
2026-05-08 04:26 -36.31546 -72.76362 12456 ft 261 kts 211°
2026-05-08 04:26 -36.33099 -72.77542 11920 ft 266 kts 211°
2026-05-08 04:26 -36.34701 -72.78760 11309 ft 273 kts 211°
2026-05-08 04:27 -36.36321 -72.79992 10854 ft 273 kts 211°
2026-05-08 04:27 -36.37943 -72.81221 10462 ft 274 kts 211°
2026-05-08 04:27 -36.39584 -72.82461 9801 ft 280 kts 211°
2026-05-08 04:27 -36.41260 -72.83717 9280 ft 282 kts 211°
2026-05-08 04:28 -36.42939 -72.84973 8830 ft 280 kts 211°
2026-05-08 04:28 -36.44608 -72.86219 8395 ft 279 kts 211°
2026-05-08 04:28 -36.46264 -72.87458 7970 ft 277 kts 210°
2026-05-08 04:28 -36.47913 -72.88690 7537 ft 275 kts 211°
2026-05-08 04:29 -36.49552 -72.89917 7101 ft 275 kts 211°
2026-05-08 04:29 -36.51189 -72.91136 6654 ft 274 kts 210°
2026-05-08 04:29 -36.52878 -72.92228 6191 ft 273 kts 207°
2026-05-08 04:29 -36.54592 -72.93241 5747 ft 272 kts 205°
2026-05-08 04:30 -36.56287 -72.94207 5307 ft 271 kts 205°
2026-05-08 04:30 -36.58004 -72.95176 4852 ft 270 kts 204°
2026-05-08 04:30 -36.59710 -72.96141 4402 ft 268 kts 205°
2026-05-08 04:30 -36.61403 -72.97105 3957 ft 267 kts 205°
2026-05-08 04:31 -36.63069 -72.98063 3520 ft 260 kts 205°
2026-05-08 04:31 -36.64689 -72.99000 3080 ft 253 kts 205°
2026-05-08 04:31 -36.66268 -72.99915 2652 ft 247 kts 205°
2026-05-08 04:31 -36.67782 -73.00796 2275 ft 231 kts 205°
2026-05-08 04:32 -36.69057 -73.01536 2287 ft 230 kts 205°
2026-05-08 04:32 -36.70500 -73.02373 2225 ft 224 kts 205°
2026-05-08 04:32 -36.71913 -73.03194 1608 ft 224 kts 205°